Location: Altoona
(40.5167°N, 78.4000°W)
Time: 15:22:05
(UTC-04:00)

Tiangong 1 - Pass Details

Date: 21 August 2017
Orbit: 303 x 328 km, 42.8° (Epoch: 24 September)

Event Time Altitude Azimuth Distance (km) Brightness Sun altitude
Rises 21:25:54 0° 285° (WNW) 2,075 6.3 -15.4°
Reaches altitude 10° 21:27:55 10° 283° (WNW) 1,232 4.8 -15.7°
Maximum altitude 21:30:39 64° 201° (SSW) 355 0.7 -16.2°
Enters shadow 21:30:55 59° 163° (SSE) 372 0.7 -16.2°
